This demonstration page uses our WeatherBlox Daily Observations layout. Learn more.

Left ArrowRight Arrow

Hourly Observations for December 7, 2020

Temp ( °F °C ) Dew Point ( °F °C ) Humidity (%) Winds ( mph kmh ) Pressure ( in mb ) Visibility ( mi km ) Precip ( " mm )
12:56 am 00:56 Clear 29 -1.7 22 -5.6 75 75 WNW 6 9 30.16 1022 10 16 0.00 0.00
1:56 am 01:56 Clear 30 -1.1 24 -4.4 79 79 WNW 8 13 30.15 1021 10 16 0.00 0.00
2:56 am 02:56 Clear 29 -1.7 23 -5 78 78 WNW 7 11 30.16 1021 10 16 0.00 0.00
3:56 am 03:56 Clear 31 -0.6 24 -4.4 76 76 Calm 30.16 1021 10 16 0.00 0.00
4:56 am 04:56 Clear 30 -1.1 22 -5.6 72 72 NW 10 17 30.16 1022 10 16 0.00 0.00
5:56 am 05:56 Clear 31 -0.6 23 -5 72 72 WNW 12 19 30.17 1022 10 16 0.00 0.00
6:56 am 06:56 Clear 32 0 22 -5.6 66 66 NW 10 17 30.19 1022 10 16 0.00 0.00
7:56 am 07:56 Sunny 30 -1.1 22 -5.6 72 72 NW 7 11 30.21 1023 10 16 0.00 0.00
8:56 am 08:56 Sunny 35 1.7 21 -6.1 57 57 WNW 12 19 30.22 1023 10 16 0.00 0.00
9:56 am 09:56 Sunny 44 6.7 21 -6.1 40 40 NW 13 20 30.21 1023 10 16 0.00 0.00
10:56 am 10:56 Sunny 48 8.9 20 -6.7 33 33 NW 14 22 30.20 1023 10 16 0.00 0.00
11:56 am 11:56 Sunny 55 12.8 18 -7.8 23 23 NW 15 24 30.18 1022 10 16 0.00 0.00
12:56 pm 12:56 Sunny 58 14.4 18 -7.8 21 21 NW 16 26 30.16 1021 10 16 0.00 0.00
1:56 pm 13:56 Sunny 60 15.6 17 -8.3 19 19 NW 16 26 30.15 1021 10 16 0.00 0.00
2:56 pm 14:56 Sunny 62 16.7 15 -9.4 16 16 NW 17 28 30.12 1020 10 16 0.00 0.00
3:56 pm 15:56 Sunny 61 16.1 16 -8.9 17 17 NW 14 22 30.11 1020 10 16 0.00 0.00
4:56 pm 16:56 Sunny 56 13.3 16 -8.9 21 21 NW 10 17 30.13 1020 10 16 0.00 0.00
5:56 pm 17:56 Clear 45 7.2 16 -8.9 31 31 WNW 10 17 30.16 1021 10 16 0.00 0.00
6:56 pm 18:56 Clear 40 4.4 16 -8.9 38 38 NW 8 13 30.16 1021 10 16 0.00 0.00
7:56 pm 19:56 Clear 38 3.3 16 -8.9 41 41 NW 8 13 30.19 1023 10 16 0.00 0.00
8:56 pm 20:56 Clear 36 2.2 16 -8.9 44 44 NW 8 13 30.20 1023 10 16 0.00 0.00
9:56 pm 21:56 Clear 32 0 18 -7.8 56 56 WNW 7 11 30.21 1023 10 16 0.00 0.00
10:56 pm 22:56 Clear 33 0.6 17 -8.3 52 52 WNW 10 17 30.19 1022 10 16 0.00 0.00

Powered by AerisWeather